Lid_Strength_Index
1 3 4 5 8 7 9 8 6 7 6 5 4 5 5 4 6 9 1 0 -0 -0 -1 -1 -1 -1 -1 -1 -1 -1 -1 -1 -1 -1 -1 -1 -1 -1 -1 -1 -1 -1 -1 -1 -1 -1 -1 -1 -1
4 5 5 5 9 10 9 6 7 6 5 5 5 5 4 6 3 3 2 0 -0 -0 -1 -1 -1 -1 -1 -1 -1 -1 -1 -1 -1 -1 -1 -1 -1 -1 -1 -1 -1 -1 -1 -2 -1 -1 -1 -1 -1
4 5 7 7 9 10 9 6 6 5 4 5 5 4 4 5 3 3 1 -0 -1 -0 -1 -1 -1 -1 -1 -1 -1 -1 -1 -1 -1 -1 -1 -1 -1 -1 -1 -1 -1 -1 -1 -1 -1 -1 -1 -1 -1
5 6 7 10 9 7 7 7 6 6 5 4 4 5 3 2 3 1 0 -0 -0 -0 -1 -1 -1 -1 -1 -1 -1 -1 -1 -1 -1 -1 -1 -1 -1 -1 -1 -1 -1 -1 -1 -1 -1 -1 -1 -1 -1
4 6 10 12 11 8 7 6 6 7 6 6 5 6 4 2 1 1 0 -0 0 -0 -1 -1 -1 -1 -1 -1 -1 -1 -1 -1 -1 -1 -1 -1 -1 -1 -1 -1 -1 -1 -1 -1 -1 -1 -1 -1 -1
7 6 10 12 11 9 8 6 6 7 7 6 6 5 4 2 2 1 0 -0 -0 -0 -1 -1 -1 -1 -1 -1 -1 -1 -1 -1 -1 -1 -1 -1 -1 -1 -1 -1 -1 -1 -1 -1 -1 -1 -1 -1 -1
7 8 10 9 9 9 9 7 8 7 7 7 5 7 3 3 1 0 0 -0 -0 -1 -1 -1 -1 -1 -1 -1 -1 -1 -1 -1 -1 -1 -1 -1 -1 -1 -1 -1 -1 -1 -1 -1 -1 -1 -1 -1 -1
6 7 9 9 10 9 7 8 7 8 8 5 5 6 5 3 1 0 0 0 -0 -0 -0 -1 -1 -1 -1 -1 -1 -1 -1 -1 -1 -1 -1 -1 -1 -1 -1 -1 -1 -1 -1 -1 -1 -1 -1 -1 -2
5 9 10 9 9 8 7 8 6 6 7 7 5 5 3 2 1 1 1 1 1 0 -0 -1 -1 -1 -1 -1 -1 -1 -1 -1 -1 -1 -1 -1 -2 -2 -2 -2 -2 -1 -1 -1 -1 -1 -1 -1 -2
7 9 9 7 7 8 7 7 7 7 7 6 6 2 2 2 2 3 3 2 2 1 0 -0 -1 -1 -1 -1 -2 -2 -1 -2 -2 -2 -2 -2 -2 -2 -2 -2 -1 -1 -1 -1 -1 -1 -1 -2 -1
8 9 8 8 7 7 8 8 7 7 8 6 4 4 3 3 2 3 2 2 2 1 0 -0 -1 -1 -1 -1 -1 -1 -1 -1 -2 -2 -2 -2 -2 -2 -2 -2 -2 -2 -2 -2 -2 -2 -2 -1 -2
10 8 8 8 8 8 8 7 8 7 6 5 4 3 4 6 4 2 3 2 2 1 1 -0 -0 -1 -1 -1 -1 -1 -1 -1 -1 -1 -2 -2 -1 -1 -1 -1 -1 -2 -2 -2 -2 -1 -2 -2 -2
10 9 9 8 8 8 8 9 9 8 6 5 5 5 6 7 6 5 1 1 1 1 1 0 -0 -1 -1 -1 -1 -1 -1 -1 -1 -1 -2 -2 -1 -1 -1 -1 -1 -1 -2 -1 -1 -1 -1 -1 -1
9 9 9 8 8 8 9 9 9 8 7 7 6 5 6 6 5 4 2 2 1 1 1 0 -0 -1 -1 -0 -1 -0 -1 -1 -1 -1 -1 -2 -1 -1 -1 -1 -1 -1 -1 -1 -1 -1 -1 -1 -1
9 10 8 8 8 8 8 10 10 8 7 8 7 6 5 7 6 5 3 2 1 1 0 0 -0 -1 -0 -0 -1 -1 -1 -1 -1 -1 -2 -2 -2 -1 -1 -1 -1 -1 -2 -2 -1 -1 -1 -1 -1
8 8 10 8 7 7 9 11 7 7 7 8 8 7 6 6 6 4 2 1 1 1 1 0 0 -0 -0 -0 -0 -0 -1 -1 -1 -1 -1 -1 -1 -2 -1 -0 -1 -1 -1 -1 -1 -0 -0 -0 -0
8 10 10 9 7 7 8 9 7 6 7 7 7 7 6 5 4 3 2 1 1 1 1 1 1 1 0 -0 -0 -0 -1 -0 -0 -1 -1 -1 -1 -1 -1 -0 -1 -1 -1 -0 -0 -0 -0 0 0
10 10 9 9 7 7 8 8 6 5 6 6 6 5 5 5 4 2 1 1 1 1 1 1 0 0 1 -0 0 0 -0 0 -0 -0 -0 -0 -1 -1 -0 -0 -1 -1 -0 -0 -0 -0 -0 0 0
10 9 9 7 6 7 8 7 6 5 5 5 4 4 4 4 2 2 2 1 2 2 1 2 1 1 0 1 1 1 1 1 0 -0 -1 -1 -1 -1 -0 0 -0 -0 0 -0 -0 0 1 1 0
9 9 9 7 6 7 7 7 6 5 5 4 4 3 3 3 2 2 2 1 1 1 1 2 1 1 1 1 1 1 1 0 0 -0 -0 -0 -0 -1 -0 -0 -0 -0 0 -0 -0 0 1 1 0
8 9 8 8 7 6 7 8 7 5 5 4 4 3 3 3 3 2 2 1 3 1 2 2 1 1 0 0 0 1 -0 0 1 1 1 -0 -0 -1 -0 -1 -0 -0 -0 0 0 0 1 2 1
9 7 7 8 9 11 7 12 8 6 6 5 4 4 3 3 2 2 2 2 1 1 1 1 1 1 1 0 0 1 2 3 2 1 0 0 -0 -1 -0 -0 -0 -0 -0 -1 -0 -0 -0 1 2
8 6 7 7 8 9 9 10 8 6 7 6 5 4 3 3 3 2 2 1 1 1 1 1 0 1 0 0 0 1 2 1 1 1 0 0 -0 -0 -0 -1 -1 -1 -0 -1 -1 -1 -0 -0 1
6 7 7 8 8 12 9 10 10 8 7 6 5 4 4 3 3 2 2 1 1 1 1 1 1 1 1 0 0 1 1 1 2 2 1 1 0 0 -0 -0 -1 -1 -1 -1 -1 -1 -1 -0 -0
7 9 12 13 13 13 9 10 9 7 6 6 6 5 4 3 3 3 3 2 1 1 1 1 1 2 1 1 1 1 1 1 1 1 1 1 1 1 -0 -1 -1 -0 -1 -1 -1 -1 -1 -1 0
8 9 12 15 14 12 9 11 8 6 5 5 5 5 4 4 3 3 2 2 2 2 2 1 1 1 1 1 1 1 0 1 1 1 1 1 0 0 -1 -1 -1 -1 -1 -1 -1 -0 -0 -1 -0
8 11 7 11 10 12 10 9 7 6 6 6 5 5 5 4 3 3 3 2 2 2 2 2 2 1 1 1 1 1 1 0 0 -0 -0 -0 -1 -0 -1 -1 -1 -1 -1 -1 -1 -0 -1 -1 -1
7 6 11 10 15 15 12 11 10 8 7 6 6 6 5 4 3 3 3 2 2 2 1 1 1 1 1 1 1 1 0 -0 -0 -0 -0 -1 -1 -1 -0 -0 -1 -1 -1 -1 -1 -1 -1 -1 -0
9 10 9 10 11 15 15 12 7 7 7 7 6 5 4 4 3 3 2 2 2 1 1 1 1 1 1 0 0 0 0 -0 -0 -0 -0 -0 -1 -1 -0 -0 -0 -0 -1 -1 -1 -1 -0 0 -0
8 9 9 14 14 12 12 13 7 7 6 5 5 5 4 4 3 3 2 2 2 1 1 1 1 1 1 0 0 0 -0 -0 -0 -0 -0 -1 -0 -1 -0 -0 -0 -0 -0 -1 -0 0 -0 0 0